Zurück zum Katalog

COSMOS 1639

AktivMilitärLEO
NORAD 15621·PAYLOAD·🇷🇺 Russia

Gestartet Mar 21, 1985 von Plesetsk Cosmodrome

Loading…

Nächste Überflüge (nächste 24 Stunden)

TLE

AktuellSource: Space-Track

Epoche: Sep 14, 2026, 07:24 UTC

1 15621U 85023E   26257.30860294 -.00000019  00000-0 -20447-4 0  9990
2 15621  74.0548 209.0114 0025807 300.5745 212.9410 12.51059576894650

Verfolge COSMOS 1639 in Echtzeit mit AllMySat

Download on the App Store